Torna al catalogo

METEOR 2-7

AttivoMeteoPO
NORAD 12456·PAYLOAD·🇷🇺 Russia

Lanciato May 14, 1981 da Plesetsk Cosmodrome

Loading…

Prossimi Passaggi (prossime 24 ore)

TLE

AggiornatoSource: Space-Track

Epoca: Sep 14, 2026, 14:41 UTC

1 12456U 81043A   26257.61182120  .00000059  00000-0  25917-4 0  9999
2 12456  81.2689  12.0954 0046491 236.2697 123.4040 14.11068864331666

Traccia METEOR 2-7 in tempo reale con AllMySat

Download on the App Store